Location: Hac?musa Deresi
(39.1694°N, 32.2508°E)
Time: 16:02:40
(UTC+00:00)

Terra - Pass Details

Date: 22 April 2026
Orbit: 688 x 691 km, 97.9° (Epoch: 11 May)

Event Time Altitude Azimuth Distance (km) Brightness Sun altitude
Exits shadow 17:53:35 22° 140° (SE) 1,498 3.0 -14.8°
Maximum altitude 17:56:24 51° 73° (ENE) 867 2.0 -15.2°
Drops below altitude 10° 18:00:57 10° 358° (N) 2,146 4.8 -16.0°
Sets 18:03:15 0° 354° (N) 3,066 5.7 -16.4°
